Home   Weather   Nottingham   Past weeks
Flag for United Kingdom

Past Weather in Nottingham, England, United Kingdom — Yesterday and Last 2 Weeks

Now
50 °F

Passing clouds.


Feels Like: 46 °F
Forecast: 55 / 47 °F
Wind: 9 mph from South

Location: East Midlands

Current Time: Oct 18, 2019 at 12:54:10 am

Latest Report: Oct 17, 2019 at 11:50 pm


Visibility: N/A

Pressure: 29.50 "Hg

Humidity: 94%

Dew Point: 48 °F

Location of NottinghamLocation

Past Weather in Nottingham — Graph

°F

Nottingham Temperature Yesterday

Maximum temperature yesterday: 55 °F (at 11:50 am)
Minimum temperature yesterday: 43 °F (at 4:20 am)
Average temperature yesterday: 49 °F

High & Low Weather Summary for the Past Weeks

 TemperatureHumidityPressure
High61 °F (Oct 8, 2:50 pm)100% (Oct 3, 8:50 am)30.18 "Hg (Oct 3, 8:50 am)
Low37 °F (Oct 3, 3:20 am)63% (Oct 8, 2:20 pm)29.47 "Hg (Oct 13, 11:20 am)
Average52 °F89%29.71 "Hg
* Reported Oct 2 11:20 pm — Oct 17 11:20 pm, Nottingham. Weather by CustomWeather, © 2019

Note: Actual official high and low records may vary slightly from our data, if they occured in-between our weather recording intervals... More about our weather records

Advertising

Nottingham Weather History for the Previous 24 Hours

Scroll right to see more
 ConditionsComfort  
Time TempWeatherWind HumidityBarometerVisibility
11:20 pm
Thu, Oct 17
50 °FPassing clouds.8 mph94%29.50 "HgN/A
10:50 pm50 °FPassing clouds.9 mph94%29.53 "HgN/A
10:20 pm52 °FPassing clouds.8 mph88%29.53 "HgN/A
9:50 pm52 °FPassing clouds.9 mph88%29.53 "HgN/A
9:20 pm52 °FPassing clouds.9 mph88%29.53 "HgN/A
8:50 pm52 °FClear.12 mph88%29.53 "Hg10 mi
8:20 pm52 °FLight rain. Passing clouds.13 mph88%29.53 "HgN/A
7:50 pm54 °FLight rain. Passing clouds.13 mph82%29.53 "HgN/A
7:20 pm52 °FClear.12 mph88%29.56 "Hg10 mi
6:50 pm52 °FClear.10 mph88%29.56 "Hg10 mi
6:20 pm54 °FPassing clouds.10 mph82%29.56 "HgN/A
5:50 pm54 °FScattered clouds.10 mph82%29.56 "HgN/A
5:20 pm54 °FScattered clouds.9 mph82%29.56 "HgN/A
4:50 pm55 °FPassing clouds.9 mph77%29.56 "HgN/A
2:50 pm55 °FScattered clouds.14 mph77%29.59 "HgN/A
2:20 pm55 °FPartly sunny.15 mph77%29.62 "HgN/A
1:50 pm55 °FPartly sunny.12 mph77%29.62 "HgN/A
1:20 pm55 °FPartly sunny.13 mph72%29.62 "HgN/A
12:50 pm55 °FScattered clouds.12 mph72%29.62 "HgN/A
12:20 pm55 °FPassing clouds.14 mph72%29.65 "HgN/A
11:50 am55 °FPassing clouds.14 mph72%29.65 "HgN/A
10:50 am52 °FSunny.9 mph82%29.65 "Hg10 mi
9:50 am48 °FPassing clouds.6 mph87%29.68 "HgN/A
9:20 am46 °FPassing clouds.6 mph87%29.68 "HgN/A
8:50 am43 °FPassing clouds.7 mph93%29.68 "HgN/A
8:20 am43 °FSunny.7 mph93%29.68 "Hg10 mi
7:50 am43 °FPassing clouds.5 mph93%29.68 "HgN/A
7:20 am43 °FPassing clouds.5 mph93%29.68 "HgN/A
6:50 am43 °FPassing clouds.6 mph93%29.68 "HgN/A
6:20 am43 °FClear.3 mph93%29.68 "Hg10 mi
5:50 am43 °FPassing clouds.5 mph93%29.68 "HgN/A
5:20 am43 °FPassing clouds.6 mph93%29.68 "HgN/A
4:50 am43 °FClear.8 mph93%29.68 "Hg10 mi
4:20 am43 °FClear.8 mph93%29.68 "Hg10 mi
3:50 am45 °FClear.9 mph87%29.68 "Hg10 mi
3:20 am45 °FClear.8 mph87%29.68 "Hg10 mi
2:50 am45 °FClear.9 mph87%29.68 "Hg10 mi
2:20 am45 °FClear.9 mph87%29.68 "Hg10 mi
1:50 am45 °FClear.8 mph87%29.68 "Hg10 mi
1:20 am45 °FClear.7 mph87%29.68 "Hg10 mi
12:50 am45 °FClear.7 mph87%29.68 "Hg10 mi
12:20 am45 °FClear.8 mph87%29.68 "Hg10 mi
Weather by CustomWeather, © 2019

See weather overview